Back to catalog

COSMOS 1275 DEB

AlivePO
NORAD 42155·DEBRIS·🇷🇺 Russia

Launched Jun 4, 1981 from Plesetsk Cosmodrome

Loading…

Next Passes (next 24 hours)

TLE

AgingSource: Space-Track

Epoch: Sep 7, 2026, 12:22 UTC

1 42155U 81053RT  26250.51581790  .00001444  00000-0  73996-3 0  9995
2 42155  82.9103 180.8339 0037912 245.5603 114.1618 14.14503184656326

Track COSMOS 1275 DEB in real time with AllMySat

Download on the App Store